Weather History for KRSN - March, 2013

Change the Weather History Date:

Friday, March 22, 2013

  Actual Average Record
Temperature  
Mean Temperature 51 °F -  
Max Temperature 55 °F 66 °F 86 °F (1935)
Min Temperature 47 °F 43 °F 25 °F (1986)
Degree Days  
Heating Degree Days 14    
Growing Degree Days 1 (Base 50)    
Moisture  
Dew Point 48 °F    
Average Humidity 92    
Maximum Humidity 100    
Minimum Humidity 42    
Precipitation  
Precipitation 0.10 in - - ()
Sea Level Pressure  
Sea Level Pressure 29.83 in    
Wind  
Wind Speed 5 mph (ENE)    
Max Wind Speed 14 mph    
Max Gust Speed 17 mph    
Visibility 5 miles    
Events Rain    
Averages and records for this station are not official NWS values.
T = Trace of Precipitation, MM = Missing Value Source: NWS Daily Summary

Daily Weather History Graph

Daily Weather History Graph

Search for Another Location

Airport or City:

Trip Planner

Search our weather history database for the weather conditions in past years. The results will help you decide how hot, cold, wet, or windy it might be!

Date:

Astronomy

Mar. 22, 2013 Rise Set
Actual Time 7:11 AM CDT 7:23 PM CDT
Civil Twilight 6:46 AM CDT 7:48 PM CDT
Nautical Twilight 6:17 AM CDT 8:16 PM CDT
Astronomical Twilight 5:49 AM CDT 8:45 PM CDT
Moon 3:04 PM CDT (3/22) 3:57 AM CDT (3/22)
Length of Visible Light 13h 01m
Length of Day
12h 12m
Waxing Gibbous, 77% of the Moon is Illuminated
Mar 22
Waxing Gibbous
Mar 27
Full
Apr 2
Last Quarter
Apr 10
New
Apr 18
First Quarter

Hourly Weather History & Observations

Time (CDT) Temp. Dew Point Humidity Pressure Visibility Wind Dir Wind Speed Gust Speed Precip Events Conditions
12:15 AM 54.5 °F 31.8 °F 42% 29.82 in 10.0 mi SE 4.6 mph - N/A   Overcast
12:35 AM 54.5 °F 32.0 °F 42% 29.82 in 10.0 mi SE 4.6 mph - N/A   Overcast
12:55 AM 54.9 °F 32.9 °F 43% 29.81 in 10.0 mi ESE 3.5 mph - N/A   Overcast
1:15 AM 55.4 °F 33.8 °F 44% 29.81 in 10.0 mi SE 5.8 mph - N/A   Overcast
1:35 AM 54.7 °F 35.1 °F 48% 29.81 in 10.0 mi Calm Calm - N/A   Overcast
1:55 AM 53.6 °F 35.4 °F 50% 29.80 in 10.0 mi Calm Calm - N/A   Overcast
2:15 AM 53.6 °F 35.8 °F 51% 29.82 in 10.0 mi Calm Calm - N/A   Overcast
2:35 AM 53.6 °F 36.1 °F 52% 29.80 in 10.0 mi ESE 3.5 mph - N/A   Overcast
2:55 AM 53.6 °F 37.4 °F 54% 29.81 in 10.0 mi Calm Calm - N/A Rain Rain
3:15 AM 51.4 °F 43.7 °F 75% 29.80 in 10.0 mi Calm Calm - N/A Rain Rain
3:35 AM 50.4 °F 43.2 °F 76% 29.79 in 10.0 mi Calm Calm - N/A   Drizzle
3:55 AM 50.0 °F 44.2 °F 81% 29.78 in 10.0 mi East 4.6 mph - N/A   Light Drizzle
4:15 AM 50.2 °F 44.8 °F 82% 29.79 in 10.0 mi ENE 4.6 mph - N/A   Overcast
4:35 AM 50.2 °F 46.9 °F 89% 29.78 in 10.0 mi East 5.8 mph - N/A   Drizzle
4:55 AM 50.0 °F 48.9 °F 96% 29.78 in 10.0 mi East 3.5 mph - N/A   Light Drizzle
5:15 AM 49.8 °F 49.8 °F 100% 29.79 in 7.0 mi ENE 4.6 mph - N/A   Drizzle
5:35 AM 49.3 °F 49.3 °F 100% 29.80 in 10.0 mi East 4.6 mph - N/A   Light Drizzle
5:55 AM 49.1 °F 49.1 °F 100% 29.80 in 10.0 mi ENE 5.8 mph - N/A   Overcast
6:15 AM 49.1 °F 49.1 °F 100% 29.80 in 7.0 mi ENE 5.8 mph - N/A   Light Drizzle
6:55 AM 48.4 °F 48.4 °F 100% 29.83 in 5.0 mi East 3.5 mph - 0.01 in Rain Rain
7:15 AM 48.4 °F 48.4 °F 100% 29.84 in 5.0 mi NE 5.8 mph - 0.02 in   Drizzle
7:35 AM 48.4 °F 48.4 °F 100% 29.85 in 5.0 mi ENE 8.1 mph - 0.03 in Rain Rain
7:55 AM 48.4 °F 48.4 °F 100% 29.86 in 4.0 mi NE 6.9 mph - 0.03 in Rain Light Rain
8:15 AM 47.8 °F 47.8 °F 100% 29.86 in 4.0 mi ENE 9.2 mph - N/A Rain Rain
8:35 AM 47.7 °F 47.7 °F 100% 29.87 in 7.0 mi East 13.8 mph 17.3 mph N/A   Overcast
8:55 AM 47.7 °F 47.7 °F 100% 29.87 in 4.0 mi East 6.9 mph - N/A   Overcast
9:15 AM 47.7 °F 47.7 °F 100% 29.87 in 4.0 mi East 8.1 mph - N/A   Overcast
9:35 AM 48.0 °F 48.0 °F 100% 29.87 in 4.0 mi East 4.6 mph - N/A   Overcast
9:55 AM 48.4 °F 48.4 °F 100% 29.87 in 4.0 mi SE 6.9 mph - N/A   Overcast
10:15 AM 48.6 °F 48.6 °F 100% 29.87 in 4.0 mi ESE 6.9 mph - N/A   Overcast
10:35 AM 49.1 °F 49.1 °F 100% 29.88 in 4.0 mi ESE 4.6 mph - N/A   Overcast
10:55 AM 49.3 °F 49.3 °F 100% 29.88 in 3.0 mi East 5.8 mph - N/A   Overcast
11:15 AM 49.5 °F 49.5 °F 100% 29.87 in 3.0 mi East 4.6 mph - N/A   Overcast
11:35 AM 50.0 °F 50.0 °F 100% 29.87 in 3.0 mi ESE 8.1 mph - N/A   Overcast
11:55 AM 49.6 °F 49.6 °F 100% 29.87 in 3.0 mi East 5.8 mph - N/A   Overcast
12:15 PM 49.8 °F 49.8 °F 100% 29.87 in 2.5 mi East 8.1 mph - N/A   Overcast
12:35 PM 50.2 °F 50.2 °F 100% 29.86 in 1.8 mi East 5.8 mph - N/A   Overcast
12:55 PM 50.2 °F 50.2 °F 100% 29.86 in 2.0 mi ENE 5.8 mph - N/A   Overcast
1:15 PM 50.4 °F 50.4 °F 100% 29.85 in 2.5 mi East 8.1 mph - N/A   Overcast
1:35 PM 50.0 °F 50.0 °F 100% 29.84 in 1.8 mi East 5.8 mph - N/A   Overcast
1:55 PM 50.2 °F 50.2 °F 100% 29.83 in 1.8 mi East 6.9 mph - N/A   Overcast
2:15 PM 50.9 °F 50.9 °F 100% 29.83 in 1.5 mi East 6.9 mph - N/A   Overcast
2:35 PM 50.9 °F 50.9 °F 100% 29.82 in 1.8 mi East 6.9 mph - N/A   Overcast
2:55 PM 51.1 °F 51.1 °F 100% 29.81 in 2.0 mi East 5.8 mph - N/A   Overcast
3:15 PM 51.6 °F 51.6 °F 100% 29.80 in 2.5 mi ENE 6.9 mph - N/A   Overcast
3:35 PM 52.0 °F 52.0 °F 100% 29.80 in 2.5 mi East 5.8 mph - N/A   Overcast
3:55 PM 52.3 °F 52.3 °F 100% 29.80 in 3.0 mi East 8.1 mph - N/A   Overcast
4:15 PM 53.1 °F 53.1 °F 100% 29.79 in 4.0 mi East 4.6 mph - N/A   Overcast
4:35 PM 53.2 °F 53.2 °F 100% 29.80 in 4.0 mi ENE 5.8 mph - N/A   Overcast
4:55 PM 53.6 °F 53.6 °F 100% 29.79 in 4.0 mi NE 6.9 mph - N/A   Overcast
5:15 PM 53.2 °F 53.2 °F 100% 29.80 in 4.0 mi ENE 5.8 mph - N/A   Overcast
5:35 PM 53.1 °F 53.1 °F 100% 29.81 in 4.0 mi NE 6.9 mph - N/A   Overcast
5:55 PM 53.2 °F 53.2 °F 100% 29.80 in 4.0 mi NE 6.9 mph - N/A   Overcast
6:15 PM 53.1 °F 53.1 °F 100% 29.81 in 4.0 mi NE 9.2 mph - N/A   Overcast
6:35 PM 52.7 °F 52.7 °F 100% 29.81 in 3.0 mi ENE 5.8 mph - N/A   Overcast
6:55 PM 52.3 °F 52.3 °F 100% 29.81 in 3.0 mi NE 8.1 mph - N/A   Overcast
7:15 PM 52.2 °F 52.2 °F 100% 29.82 in 4.0 mi NE 5.8 mph - N/A   Overcast
7:35 PM 51.8 °F 51.8 °F 100% 29.82 in 3.0 mi NNE 8.1 mph - N/A   Overcast
7:55 PM 51.4 °F 51.4 °F 100% 29.83 in 3.0 mi NE 8.1 mph - N/A   Overcast
8:15 PM 51.3 °F 51.3 °F 100% 29.83 in 2.5 mi NE 9.2 mph - N/A   Overcast
8:35 PM 50.9 °F 50.9 °F 100% 29.84 in 2.5 mi NE 6.9 mph - N/A   Overcast
8:55 PM 50.7 °F 50.7 °F 100% 29.84 in 3.0 mi NE 8.1 mph - N/A   Overcast
9:15 PM 50.5 °F 50.5 °F 100% 29.85 in 4.0 mi NNE 6.9 mph - N/A   Overcast
9:35 PM 50.2 °F 50.2 °F 100% 29.86 in 3.0 mi NNE 3.5 mph - 0.03 in Rain Light Rain
9:55 PM 50.0 °F 50.0 °F 100% 29.85 in 4.0 mi NE 8.1 mph - 0.06 in Rain Light Rain
10:15 PM 50.2 °F 50.2 °F 100% 29.86 in 5.0 mi NE 5.8 mph - N/A   Overcast
10:35 PM 50.0 °F 50.0 °F 100% 29.86 in 7.0 mi ENE 5.8 mph - N/A   Overcast
10:55 PM 50.0 °F 50.0 °F 100% 29.86 in 7.0 mi NE 3.5 mph - N/A Rain Light Rain
11:15 PM 50.0 °F 50.0 °F 100% 29.86 in 7.0 mi ENE 4.6 mph - N/A   Overcast
11:35 PM 49.8 °F 49.8 °F 100% 29.86 in 7.0 mi NE 5.8 mph - N/A   Overcast
11:55 PM 50.0 °F 50.0 °F 100% 29.87 in 7.0 mi NE 6.9 mph - N/A   Overcast